Parsival — V2MS — position and weather

sailwx.info

Track history (hours):
 
Tides and Currents Weather Stations Pressure Air Temp Water Temp Dewpoint Dewpoint Depression Visibility Wind Speed Wind Dir Waves Ship Positions

Parsival

Last reported at 2014-Jul-25 03:33 UTC. Time now 2014-Jul-25 03:49 UTC.
Position N 53°50' E 000°55'.

; draft 3.7 m.

Type: Cargo ship. MMSI: 304010881.

Date/timePositionNaut miles runAvg speedWind from/ knotsBaromVisibWave heightAir tempDewpointWater temp
2014-Jul-25 03:33N 53°50' E 000°55'8 7.6
2014-Jul-25 02:33N 53°43' E 001°02'8 8.2
2014-Jul-25 01:33N 53°36' E 001°08'9 9.2
2014-Jul-25 00:33N 53°28' E 001°16'1010.1
2014-Jul-24 23:32N 53°19' E 001°25'1010.1
2014-Jul-24 22:32N 53°10' E 001°33'9 9.4
2014-Jul-24 21:33N 53°02' E 001°40'9 8.5
2014-Jul-24 20:33N 52°58' E 001°52'8 7.8
2014-Jul-24 19:33N 52°55' E 002°04'6 6.5
2014-Jul-24 18:33N 52°49' E 002°09'7 7.0
2014-Jul-24 17:30N 52°43' E 002°14'8 8.0
2014-Jul-24 16:33N 52°38' E 002°05'9 8.8
2014-Jul-24 15:33N 52°33' E 001°53'6 5.8
2014-Jul-24 14:33N 52°34' E 001°44'1 0.7
2014-Jul-24 13:34N 52°35' E 001°44'0 0.0
2014-Jul-24 12:33N 52°35' E 001°44'0 0.0
2014-Jul-24 11:33N 52°35' E 001°44'0 0.0
2014-Jul-24 10:33N 52°35' E 001°44'0 0.0
2014-Jul-24 09:33N 52°35' E 001°44'0 0.0
2014-Jul-24 08:33N 52°35' E 001°44'0 0.0
2014-Jul-24 07:34N 52°35' E 001°44'0 0.0
2014-Jul-24 06:34N 52°35' E 001°44'0 0.0
2014-Jul-24 05:33N 52°35' E 001°44'0 0.0
2014-Jul-24 04:33N 52°35' E 001°44'0 0.0
2014-Jul-24 03:33N 52°35' E 001°44'0 0.0
2014-Jul-24 02:34N 52°35' E 001°44'0 0.0
2014-Jul-24 01:33N 52°35' E 001°44'0 0.0
2014-Jul-24 00:33N 52°35' E 001°44'0 0.0
2014-Jul-23 23:33N 52°35' E 001°44'0 0.0
2014-Jul-23 22:33N 52°35' E 001°44'0 0.0
2014-Jul-23 21:33N 52°35' E 001°44'0 0.0
2014-Jul-23 20:33N 52°35' E 001°44'0 0.0
2014-Jul-23 19:34N 52°35' E 001°44'0 0.0
2014-Jul-23 18:33N 52°35' E 001°44'0 0.0
2014-Jul-23 17:33N 52°35' E 001°44'0 0.0
2014-Jul-23 16:33N 52°35' E 001°44'0 0.0
2014-Jul-23 15:33N 52°35' E 001°44'0 0.0
2014-Jul-23 14:33N 52°35' E 001°44'0 0.0
2014-Jul-23 13:34N 52°35' E 001°44'0 0.0
2014-Jul-23 12:33N 52°35' E 001°44'24 2.0
2014-Jul-23 00:33N 52°12' E 001°50'10 9.8
2014-Jul-22 23:33N 52°02' E 001°49'10 9.5
2014-Jul-22 22:33N 51°52' E 001°49'9 8.8
2014-Jul-22 21:33N 51°43' E 001°49'8 8.2
2014-Jul-22 20:33N 51°35' E 001°47'8 8.1
2014-Jul-22 19:33N 51°27' E 001°45'8 7.6
2014-Jul-22 18:33N 51°20' E 001°43'6 6.2
2014-Jul-22 17:33N 51°14' E 001°40'5 4.5
2014-Jul-22 16:33N 51°10' E 001°36'5 4.6
2014-Jul-22 15:33N 51°06' E 001°39'5 5.1
2014-Jul-22 14:33N 51°02' E 001°34'6 5.7
2014-Jul-22 13:31N 50°58' E 001°27'14 6.9
2014-Jul-22 11:29N 50°45' E 001°21'23 7.7
2014-Jul-22 08:33N 50°31' E 000°53'9 8.5
2014-Jul-22 07:32N 50°28' E 000°41'9 9.0
2014-Jul-22 06:33N 50°26' E 000°27'10 9.7
2014-Jul-22 05:33N 50°23' E 000°12'  
2014-Jul-17 18:24N 38°51' W 009°51'25 7.9
2014-Jul-17 15:13N 38°26' W 009°46'6 8.1
2014-Jul-17 14:31N 38°21' W 009°44'17 8.1
2014-Jul-17 12:29N 38°05' W 009°39'18 7.9
2014-Jul-17 10:14N 37°47' W 009°34'7 7.8
2014-Jul-17 09:20N 37°40' W 009°32'7 7.4
2014-Jul-17 08:28N 37°34' W 009°31'7 7.2
2014-Jul-17 07:27N 37°27' W 009°28'17 7.5
2014-Jul-17 05:13N 37°11' W 009°23'5 7.9
2014-Jul-17 04:33N 37°05' W 009°22'8 7.9
2014-Jul-17 03:32N 36°58' W 009°20'8 7.4
2014-Jul-17 02:31N 36°51' W 009°16'14 7.3
2014-Jul-17 00:33N 36°43' W 009°01'7 7.5
2014-Jul-16 23:33N 36°36' W 008°58'8 7.9
2014-Jul-16 22:33N 36°29' W 008°56'86 7.6
2014-Jul-16 11:19N 35°03' W 008°51'  
Track history (hours):
 
Tides and Currents Weather Stations Pressure Air Temp Water Temp Dewpoint Dewpoint Depression Visibility Wind Speed Wind Dir Waves Ship Positions

Parsival

Last reported at 2014-Jul-25 03:33 UTC. Time now 2014-Jul-25 03:49 UTC.
Position N 53°50' E 000°55'.

; draft 3.7 m.

Type: Cargo ship. MMSI: 304010881.

Date/timePositionNaut miles runAvg speedWind from/ knotsBaromVisibWave heightAir tempDewpointWater temp
2014-Jul-25 03:33N 53°50' E 000°55'8 7.6
2014-Jul-25 02:33N 53°43' E 001°02'8 8.2
2014-Jul-25 01:33N 53°36' E 001°08'9 9.2
2014-Jul-25 00:33N 53°28' E 001°16'1010.1
2014-Jul-24 23:32N 53°19' E 001°25'1010.1
2014-Jul-24 22:32N 53°10' E 001°33'9 9.4
2014-Jul-24 21:33N 53°02' E 001°40'9 8.5
2014-Jul-24 20:33N 52°58' E 001°52'8 7.8
2014-Jul-24 19:33N 52°55' E 002°04'6 6.5
2014-Jul-24 18:33N 52°49' E 002°09'7 7.0
2014-Jul-24 17:30N 52°43' E 002°14'8 8.0
2014-Jul-24 16:33N 52°38' E 002°05'9 8.8
2014-Jul-24 15:33N 52°33' E 001°53'6 5.8
2014-Jul-24 14:33N 52°34' E 001°44'1 0.7
2014-Jul-24 13:34N 52°35' E 001°44'0 0.0
2014-Jul-24 12:33N 52°35' E 001°44'0 0.0
2014-Jul-24 11:33N 52°35' E 001°44'0 0.0
2014-Jul-24 10:33N 52°35' E 001°44'0 0.0
2014-Jul-24 09:33N 52°35' E 001°44'0 0.0
2014-Jul-24 08:33N 52°35' E 001°44'0 0.0
2014-Jul-24 07:34N 52°35' E 001°44'0 0.0
2014-Jul-24 06:34N 52°35' E 001°44'0 0.0
2014-Jul-24 05:33N 52°35' E 001°44'0 0.0
2014-Jul-24 04:33N 52°35' E 001°44'0 0.0
2014-Jul-24 03:33N 52°35' E 001°44'0 0.0
2014-Jul-24 02:34N 52°35' E 001°44'0 0.0
2014-Jul-24 01:33N 52°35' E 001°44'0 0.0
2014-Jul-24 00:33N 52°35' E 001°44'0 0.0
2014-Jul-23 23:33N 52°35' E 001°44'0 0.0
2014-Jul-23 22:33N 52°35' E 001°44'0 0.0
2014-Jul-23 21:33N 52°35' E 001°44'0 0.0
2014-Jul-23 20:33N 52°35' E 001°44'0 0.0
2014-Jul-23 19:34N 52°35' E 001°44'0 0.0
2014-Jul-23 18:33N 52°35' E 001°44'0 0.0
2014-Jul-23 17:33N 52°35' E 001°44'0 0.0
2014-Jul-23 16:33N 52°35' E 001°44'0 0.0
2014-Jul-23 15:33N 52°35' E 001°44'0 0.0
2014-Jul-23 14:33N 52°35' E 001°44'0 0.0
2014-Jul-23 13:34N 52°35' E 001°44'0 0.0
2014-Jul-23 12:33N 52°35' E 001°44'24 2.0
2014-Jul-23 00:33N 52°12' E 001°50'10 9.8
2014-Jul-22 23:33N 52°02' E 001°49'10 9.5
2014-Jul-22 22:33N 51°52' E 001°49'9 8.8
2014-Jul-22 21:33N 51°43' E 001°49'8 8.2
2014-Jul-22 20:33N 51°35' E 001°47'8 8.1
2014-Jul-22 19:33N 51°27' E 001°45'8 7.6
2014-Jul-22 18:33N 51°20' E 001°43'6 6.2
2014-Jul-22 17:33N 51°14' E 001°40'5 4.5
2014-Jul-22 16:33N 51°10' E 001°36'5 4.6
2014-Jul-22 15:33N 51°06' E 001°39'5 5.1
2014-Jul-22 14:33N 51°02' E 001°34'6 5.7
2014-Jul-22 13:31N 50°58' E 001°27'14 6.9
2014-Jul-22 11:29N 50°45' E 001°21'23 7.7
2014-Jul-22 08:33N 50°31' E 000°53'9 8.5
2014-Jul-22 07:32N 50°28' E 000°41'9 9.0
2014-Jul-22 06:33N 50°26' E 000°27'10 9.7
2014-Jul-22 05:33N 50°23' E 000°12'  
2014-Jul-17 18:24N 38°51' W 009°51'25 7.9
2014-Jul-17 15:13N 38°26' W 009°46'6 8.1
2014-Jul-17 14:31N 38°21' W 009°44'17 8.1
2014-Jul-17 12:29N 38°05' W 009°39'18 7.9
2014-Jul-17 10:14N 37°47' W 009°34'7 7.8
2014-Jul-17 09:20N 37°40' W 009°32'7 7.4
2014-Jul-17 08:28N 37°34' W 009°31'7 7.2
2014-Jul-17 07:27N 37°27' W 009°28'17 7.5
2014-Jul-17 05:13N 37°11' W 009°23'5 7.9
2014-Jul-17 04:33N 37°05' W 009°22'8 7.9
2014-Jul-17 03:32N 36°58' W 009°20'8 7.4
2014-Jul-17 02:31N 36°51' W 009°16'14 7.3
2014-Jul-17 00:33N 36°43' W 009°01'7 7.5
2014-Jul-16 23:33N 36°36' W 008°58'8 7.9
2014-Jul-16 22:33N 36°29' W 008°56'86 7.6
2014-Jul-16 11:19N 35°03' W 008°51'  

Dump ship's entire track history